Location: *
(37.4917°N, 71.5558°E)
Time: 08:26:45
(UTC+00:00)

Cosmos 1656 - Pass Details

Date: 09 April 2020
Orbit: 798 x 849 km, 71.1° (Epoch: 03 June)

Event Time Altitude Azimuth Distance (km) Brightness Sun altitude
Rises 16:22:01 0° 342° (NNW) 3,411 7.7 -29.2°
Reaches altitude 10° 16:24:32 10° 346° (NNW) 2,468 6.7 -29.6°
Enters shadow 16:28:49 46° 17° (NNE) 1,109 4.3 -30.2°
